Black River Falls, WI

9:20 PM CDT on September 25, 2016 (GMT -0500)
Black River Falls Area

Weather History for KBCK - July, 2013

Change the Weather History Date:

Tuesday, July 2, 2013

  Actual Average (KLSE) Record (KLSE)
Temperature  
Mean Temperature 64 °F 73 °F  
Max Temperature 79 °F 84 °F 103 °F (1911)
Min Temperature 50 °F 63 °F 47 °F (1924)
Degree Days  
Heating Degree Days 0 0  
Month to date heating degree days 0  
Since 1 July heating degree days 0  
Cooling Degree Days 0 9  
Month to date cooling degree days 17  
Year to date cooling degree days 231  
Growing Degree Days 14 (Base 50)    
Moisture  
Dew Point 54 °F    
Average Humidity 72    
Maximum Humidity 100    
Minimum Humidity 38    
Precipitation  
Precipitation 0.00 in 0.14 in 2.05 in (1925)
Month to date precipitation 0.27  
Year to date precipitation 15.68  
Snow  
Snow 0.00 in 0.00 in 0.00 in (2002)
Month to date snowfall 0.0  
Since 1 July snowfall 0.0  
Snow Depth -    
Sea Level Pressure  
Sea Level Pressure 30.11 in    
Wind  
Wind Speed 2 mph (ENE)    
Max Wind Speed 9 mph    
Max Gust Speed -    
Visibility 9 miles    
Events Thunderstorm    
T = Trace of Precipitation, MM = Missing Value Source: NWS Daily Summary

Daily Weather History Graph

Daily Weather History Graph

Search for Another Location

Airport or City:

Trip Planner

Search our weather history database for the weather conditions in past years. The results will help you decide how hot, cold, wet, or windy it might be!

Date:

Astronomy

Jul. 02, 2013 Rise Set
Actual Time 5:24 AM CDT 8:50 PM CDT
Civil Twilight 4:47 AM CDT 9:26 PM CDT
Nautical Twilight 4:00 AM CDT 10:14 PM CDT
Astronomical Twilight 2:59 AM CDT 11:14 PM CDT
Moon 1:33 AM CDT (7/2) 3:59 PM CDT (7/2)
Length of Visible Light 16h 39m
Length of Day
15h 26m
Waning Crescent, 26% of the Moon is Illuminated
Jul 2
Waning Crescent
Jul 8
New
Jul 15
First Quarter
Jul 22
Full
Jul 29
Last Quarter

Hourly Weather History & Observations

Time (CDT) Temp. Dew Point Humidity Pressure Visibility Wind Dir Wind Speed Gust Speed Precip Events Conditions
12:15 AM 56.8 °F 56.8 °F 100% 30.12 in 7.0 mi Calm Calm - N/A   Clear
12:35 AM 57.6 °F 57.6 °F 100% 30.13 in 7.0 mi Calm Calm - N/A   Clear
12:55 AM 57.7 °F 57.6 °F 99% 30.13 in 10.0 mi Calm Calm - N/A   Clear
1:15 AM 55.6 °F 55.6 °F 100% 30.13 in 7.0 mi Calm Calm - N/A   Clear
1:35 AM 54.9 °F 54.9 °F 100% 30.13 in 7.0 mi Calm Calm - N/A   Clear
1:55 AM 54.5 °F 54.5 °F 100% 30.13 in 5.0 mi Calm Calm - N/A Thunderstorm Clear
2:15 AM 53.6 °F 53.6 °F 100% 30.13 in 7.0 mi Calm Calm - N/A   Clear
2:35 AM 52.9 °F 52.9 °F 100% 30.13 in 7.0 mi Calm Calm - N/A   Clear
2:55 AM 51.8 °F 51.8 °F 100% 30.13 in 7.0 mi Calm Calm - N/A   Clear
3:15 AM 51.8 °F 51.8 °F 100% 30.12 in 5.0 mi Calm Calm - N/A   Clear
3:35 AM 51.8 °F 51.8 °F 100% 30.12 in 5.0 mi Calm Calm - N/A   Clear
3:55 AM 50.5 °F 50.5 °F 100% 30.12 in 7.0 mi Calm Calm - N/A   Clear
4:15 AM 51.3 °F 51.3 °F 100% 30.13 in 5.0 mi Calm Calm - N/A   Clear
4:35 AM 51.6 °F 51.6 °F 100% 30.13 in 5.0 mi Calm Calm - N/A   Clear
4:55 AM 51.3 °F 51.3 °F 100% 30.13 in 4.0 mi NE 3.5 mph - N/A   Clear
5:15 AM 52.7 °F 52.7 °F 100% 30.14 in 3.0 mi ENE 3.5 mph - N/A   Clear
5:35 AM 53.6 °F 53.6 °F 100% 30.14 in 4.0 mi ENE 3.5 mph - N/A   Clear
5:55 AM 53.6 °F 53.6 °F 100% 30.14 in 4.0 mi NNE 3.5 mph - N/A   Clear
6:15 AM 54.5 °F 54.5 °F 100% 30.14 in 5.0 mi Calm Calm - N/A   Clear
6:35 AM 56.5 °F 56.5 °F 100% 30.14 in 10.0 mi NE 4.6 mph - N/A   Clear
6:55 AM 58.1 °F 57.2 °F 97% 30.15 in 10.0 mi ENE 3.5 mph - N/A   Clear
7:15 AM 59.0 °F 56.8 °F 93% 30.15 in 10.0 mi NE 4.6 mph - N/A   Clear
7:35 AM 59.9 °F 58.1 °F 94% 30.15 in 10.0 mi ENE 4.6 mph - N/A   Clear
7:55 AM 61.3 °F 56.3 °F 83% 30.15 in 10.0 mi ENE 6.9 mph - N/A   Clear
8:15 AM 62.6 °F 54.7 °F 75% 30.15 in 10.0 mi East 3.5 mph - N/A   Clear
8:35 AM 64.0 °F 55.0 °F 73% 30.15 in 10.0 mi ENE 3.5 mph - N/A   Clear
9:15 AM 67.1 °F 54.3 °F 63% 30.14 in 10.0 mi East 3.5 mph - N/A   Clear
9:35 AM 68.4 °F 54.7 °F 62% 30.14 in 10.0 mi East 4.6 mph - N/A   Clear
9:55 AM 69.8 °F 54.9 °F 59% 30.14 in 10.0 mi Calm Calm - N/A   Clear
10:15 AM 70.5 °F 55.8 °F 59% 30.13 in 10.0 mi Calm Calm - N/A   Clear
10:35 AM 72.0 °F 55.2 °F 55% 30.13 in 10.0 mi ENE 5.8 mph - N/A   Clear
10:55 AM 72.7 °F 55.6 °F 55% 30.13 in 10.0 mi NE 3.5 mph - N/A   Clear
11:15 AM 73.6 °F 55.8 °F 54% 30.13 in 10.0 mi NE 5.8 mph - N/A   Clear
11:35 AM 74.3 °F 56.1 °F 53% 30.13 in 10.0 mi NE 6.9 mph - N/A   Clear
11:55 AM 75.2 °F 55.4 °F 50% 30.13 in 10.0 mi NE 6.9 mph - N/A   Clear
12:15 PM 76.1 °F 53.6 °F 45% 30.12 in 10.0 mi ENE 6.9 mph - N/A   Clear
12:35 PM 76.8 °F 53.1 °F 44% 30.12 in 10.0 mi NE 5.8 mph - N/A   Scattered Clouds
12:55 PM 77.4 °F 51.4 °F 40% 30.11 in 10.0 mi ENE 8.1 mph - N/A   Clear
1:15 PM 77.9 °F 51.6 °F 40% 30.11 in 10.0 mi ENE 6.9 mph - N/A   Clear
1:35 PM 77.7 °F 50.7 °F 39% 30.11 in 10.0 mi NE 3.5 mph - N/A   Clear
1:55 PM 78.8 °F 51.8 °F 39% 30.10 in 10.0 mi NE 4.6 mph - N/A   Clear
2:15 PM 79.0 °F 52.7 °F 40% 30.09 in 10.0 mi ENE 6.9 mph - N/A   Clear
2:35 PM 78.8 °F 52.7 °F 40% 30.09 in 10.0 mi East 6.9 mph - N/A   Scattered Clouds
2:55 PM 77.9 °F 52.5 °F 41% 30.09 in 10.0 mi East 4.6 mph - N/A   Mostly Cloudy
3:15 PM 79.0 °F 51.4 °F 38% 30.09 in 10.0 mi East 8.1 mph - N/A   Mostly Cloudy
3:35 PM 78.3 °F 50.9 °F 38% 30.09 in 10.0 mi Calm Calm - N/A   Scattered Clouds
3:55 PM 78.8 °F 51.1 °F 38% 30.08 in 10.0 mi ENE 4.6 mph - N/A   Clear
4:15 PM 78.4 °F 52.0 °F 40% 30.08 in 10.0 mi ENE 9.2 mph - N/A   Scattered Clouds
4:35 PM 78.8 °F 51.6 °F 39% 30.07 in 10.0 mi East 5.8 mph - N/A   Clear
4:55 PM 77.9 °F 52.2 °F 41% 30.07 in 10.0 mi ENE 8.1 mph - N/A   Clear
5:15 PM 77.9 °F 51.4 °F 40% 30.07 in 10.0 mi ENE 5.8 mph - N/A   Clear
5:35 PM 78.3 °F 50.7 °F 38% 30.07 in 10.0 mi Calm Calm - N/A   Scattered Clouds
5:55 PM 77.7 °F 51.8 °F 40% 30.07 in 10.0 mi ESE 4.6 mph - N/A   Scattered Clouds
6:15 PM 75.6 °F 53.8 °F 47% 30.06 in 10.0 mi ESE 3.5 mph - N/A   Scattered Clouds
6:35 PM 75.9 °F 53.6 °F 46% 30.06 in 10.0 mi Calm Calm - N/A   Scattered Clouds
6:55 PM 76.5 °F 53.1 °F 44% 30.06 in 10.0 mi Calm Calm - N/A   Scattered Clouds
7:15 PM 74.8 °F 52.5 °F 46% 30.07 in 10.0 mi East 5.8 mph - N/A   Mostly Cloudy
7:35 PM 72.9 °F 53.6 °F 51% 30.07 in 10.0 mi East 3.5 mph - N/A   Scattered Clouds
7:55 PM 71.8 °F 55.2 °F 56% 30.07 in 10.0 mi Calm Calm - N/A   Clear
8:15 PM 70.3 °F 57.9 °F 65% 30.07 in 10.0 mi Calm Calm - N/A   Clear
8:35 PM 66.9 °F 59.2 °F 76% 30.06 in 10.0 mi Calm Calm - N/A   Clear
8:55 PM 64.4 °F 59.5 °F 84% 30.06 in 10.0 mi Calm Calm - N/A   Clear
9:15 PM 61.9 °F 57.9 °F 87% 30.07 in 10.0 mi Calm Calm - N/A   Clear
9:35 PM 59.2 °F 58.1 °F 96% 30.07 in 10.0 mi Calm Calm - N/A   Clear
9:55 PM 58.6 °F 57.6 °F 96% 30.08 in 10.0 mi Calm Calm - N/A   Clear
10:15 PM 57.2 °F 56.7 °F 98% 30.08 in 10.0 mi Calm Calm - N/A   Clear
10:35 PM 56.3 °F 56.1 °F 99% 30.09 in 10.0 mi Calm Calm - N/A   Clear
10:55 PM 54.7 °F 54.5 °F 99% 30.09 in 10.0 mi Calm Calm - N/A   Clear
11:15 PM 53.8 °F 53.6 °F 99% 30.09 in 10.0 mi Calm Calm - N/A   Clear
11:35 PM 53.6 °F 53.6 °F 100% 30.09 in 10.0 mi Calm Calm - N/A   Scattered Clouds
11:55 PM 54.0 °F 53.8 °F 99% 30.09 in 10.0 mi Calm Calm - N/A   Mostly Cloudy